Location: São Paulo
(23.5507°S, 46.6334°W)
Time: 08:13:07
(UTC-03:00)

S-56A Canister/Altair - Visible Passes

Search period start: 16 February 2026 00:00
Search period end: 26 February 2026 00:00
Orbit: 632 x 2485 km, 38.9° (Epoch: 16 February)

Date Brightness Start Highest point End Pass type
(mag) Time Alt. Az. Time Alt. Az. Time Alt. Az.
16 Feb 10.0 19:56:41 10° WNW 19:57:21 10° NW 19:58:02 10° NW visible
17 Feb 9.7 19:19:32 10° W 19:22:43 16° NW 19:25:31 10° NNW visible
19 Feb 11.9 05:34:20 10° NE 05:36:31 10° NE 05:38:44 10° ENE visible
23 Feb 11.4 05:10:04 10° N 05:19:25 23° NE 05:29:43 10° E visible
24 Feb 11.4 04:36:20 10° NNE 04:43:58 18° NE 04:52:24 10° E visible
25 Feb 11.5 04:03:28 10° NNE 04:08:36 13° NE 04:14:09 10° ENE visible
